This is the latest recevied weather packets stored in our database for station/object N3TTT-13. If no packets are shown the sender has not sent any weather packets the latest 10 day(s).
| Time | Temp. | Humidity | Pressure | Rain* | Wind** | Luminosity | Snow |
|---|---|---|---|---|---|---|---|
| 1777206833 | 6.67° C | 91% | 1018 hPa | 0 mm | - | 46 W/m² | - |
| 1777206528 | 6.67° C | 91% | 1017.8 hPa | 0 mm | - | 50 W/m² | - |
| 1777206223 | 6.67° C | 92% | 1017.8 hPa | 0 mm | - | 45 W/m² | - |
| 1777205919 | 6.67° C | 92% | 1017.9 hPa | 0 mm | - | 41 W/m² | - |
| 1777205615 | 6.67° C | 92% | 1017.9 hPa | 0 mm | - | 29 W/m² | - |
| 1777205313 | 6.67° C | 92% | 1017.7 hPa | 0 mm | - | 31 W/m² | - |
| 1777205008 | 6.67° C | 92% | 1018 hPa | 0 mm | - | 28 W/m² | - |
| 1777204704 | 6.67° C | 92% | 1017.8 hPa | 0 mm | - | 23 W/m² | - |
| 1777204399 | 6.67° C | 91% | 1017.4 hPa | 0 mm | - | 20 W/m² | - |
| 1777204096 | 6.67° C | 92% | 1017.4 hPa | 0 mm | - | 19 W/m² | - |
| 1777203791 | 6.67° C | 92% | 1017.3 hPa | 0 mm | - | 20 W/m² | - |
| 1777203486 | 6.67° C | 92% | 1017.3 hPa | 0 mm | - | 22 W/m² | - |
| 1777203182 | 6.67° C | 92% | 1017.2 hPa | 0 mm | - | 16 W/m² | - |
| 1777202880 | 6.67° C | 93% | 1017.4 hPa | 0 mm | - | 14 W/m² | - |
| 1777202578 | 6.67° C | 93% | 1017.3 hPa | 0 mm | - | 10 W/m² | - |
| 1777202273 | 6.67° C | 92% | 1017.1 hPa | 0 mm | - | 8 W/m² | - |
| 1777201969 | 6.67° C | 92% | 1016.9 hPa | 0 mm | - | 9 W/m² | - |
| 1777201665 | 6.67° C | 92% | 1017 hPa | 0 mm | - | 8 W/m² | - |
| 1777201362 | 6.67° C | 92% | 1016.9 hPa | 0 mm | - | 6 W/m² | - |
| 1777201057 | 6.67° C | 92% | 1016.9 hPa | 0 mm | - | 4 W/m² | - |
| 1777200754 | 6.67° C | 92% | 1016.8 hPa | 0 mm | - | 3 W/m² | - |
| 1777200453 | 6.67° C | 92% | 1016.7 hPa | 0 mm | - | 3 W/m² | - |
| 1777200150 | 6.67° C | 92% | 1016.6 hPa | 0 mm | - | 3 W/m² | - |
| 1777199846 | 6.67° C | 92% | 1016.4 hPa | 0 mm | - | 2 W/m² | - |
| 1777199541 | 6.67° C | 92% | 1016.2 hPa | 0 mm | - | 2 W/m² | - |
* Rain latest hour (hover to see other rain measurements)
** Current wind speed in m/s (hover to see current wind gust speed)